Location: Houston
(29.7631°N, 95.3631°W)
Time: 23:32:34
(UTC-06:00)

Envisat - Pass Details

Date: 31 October 2019
Orbit: 764 x 766 km, 98.1° (Epoch: 21 November)

Event Time Altitude Azimuth Distance (km) Brightness Sun altitude
Rises 20:37:31 0° 204° (SSW) 3,217 6.6 -26.9°
Reaches altitude 10° 20:40:32 10° 223° (SW) 2,295 6.0 -27.6°
Maximum altitude 20:43:54 18° 265° (W) 1,820 5.7 -28.3°
Drops below altitude 10° 20:47:16 10° 307° (NW) 2,303 6.1 -29.0°
Sets 20:50:19 0° 326° (NNW) 3,233 6.7 -29.7°
